DW9882 Weather Reports


time (UTC)temp
F
wind
direction
speed
knots
gust
knots
rain 1hr
in
rain 24hr
in
rain mn
in
humidity
%
barometer
mb
20260508053205 54 65 0.0 0.0 0.00 0.02 0.02 63 1016.8
20260508051204 55 68 0.0 0.0 0.00 0.02 0.02 59 1016.6
20260508050704 55 68 0.0 0.0 0.00 0.02 0.02 59 1016.5
20260508050203 55 68 0.0 0.0 0.00 0.02 0.02 58 1016.4
20260508045703 55 68 0.0 0.0 0.00 0.02 0.02 57 1016.5
20260508044704 55 68 0.0 0.0 0.00 0.02 0.02 57 1016.4
20260508044204 55 68 0.0 1.7 0.00 0.02 0.02 56 1016.5
20260508043704 55 68 0.0 1.7 0.00 0.02 0.02 57 1016.5
20260508043204 55 68 0.0 6.1 0.00 0.02 0.02 56 1016.6
20260508042704 55 101 0.9 7.8 0.00 0.02 0.02 56 1016.6
20260508042204 55 22 1.7 4.3 0.00 0.02 0.02 56 1016.8
20260508041704 55 355 0.0 0.0 0.00 0.02 0.02 56 1016.6
20260508041204 56 355 0.0 0.0 0.00 0.02 0.02 55 1016.4
20260508040704 56 355 0.0 0.0 0.00 0.02 0.02 55 1016.1
20260508040203 56 355 0.0 0.0 0.00 0.02 0.02 54 1016.0
20260508035703 56 355 0.0 0.0 0.00 0.02 0.02 54 1016.0
20260508035204 57 355 0.0 0.0 0.00 0.02 0.02 53 1016.0
20260508034704 57 355 0.0 0.0 0.00 0.02 0.02 53 1015.9
20260508034204 57 355 0.0 0.0 0.00 0.02 0.02 51 1015.8
20260508033703 57 355 0.0 0.0 0.00 0.02 0.02 51 1015.9
20260508033203 57 355 0.0 0.0 0.00 0.02 0.02 50 1015.8
20260508032704 58 355 0.0 0.0 0.00 0.02 0.02 49 1015.8
20260508032204 58 355 0.0 0.0 0.00 0.02 0.02 50 1015.9
20260508031703 58 355 0.0 0.9 0.00 0.02 0.02 48 1015.9
20260508031204 58 355 0.9 1.7 0.00 0.02 0.02 47 1015.8
20260508030704 58 355 0.0 0.0 0.00 0.02 0.02 47 1015.8
20260508030203 59 355 0.9 2.6 0.00 0.02 0.02 47 1015.7
20260508025704 59 355 0.0 0.9 0.00 0.02 0.02 46 1015.7
20260508024704 59 355 0.0 2.6 0.00 0.02 0.02 46 1015.8
20260508024203 60 351 1.7 2.6 0.00 0.02 0.02 44 1015.8
20260508023704 60 21 2.6 10.4 0.00 0.02 0.02 43 1015.8
20260508023204 60 354 5.2 10.4 0.00 0.02 0.02 43 1015.8
20260508022703 60 238 0.0 2.6 0.00 0.02 0.02 43 1015.7
20260508022203 60 271 2.6 13.0 0.00 0.02 0.02 42 1015.8
20260508021703 61 340 0.0 10.4 0.00 0.02 0.02 43 1016.0
20260508021203 61 246 0.9 2.6 0.00 0.02 0.02 42 1015.8
20260508020704 61 272 0.9 2.6 0.00 0.02 0.02 40 1015.6
20260508015705 61 17 0.0 1.7 0.00 0.02 0.02 40 1015.3
20260508015205 61 17 0.9 2.6 0.00 0.02 0.02 40 1015.2
20260508014205 61 11 1.7 4.3 0.00 0.02 0.02 42 1015.0
20260508013705 62 5 0.9 2.6 0.00 0.02 0.02 46 1014.9
20260508013205 62 182 0.0 0.9 0.00 0.02 0.02 46 1014.7
20260508012705 62 182 0.0 0.9 0.00 0.02 0.02 43 1014.6
20260508012205 62 182 0.0 0.0 0.00 0.02 0.02 40 1014.6
20260508011705 62 182 0.0 0.0 0.00 0.02 0.02 38 1014.5
20260508011205 63 182 0.0 0.0 0.00 0.02 0.02 37 1014.5
20260508010705 63 182 0.0 0.0 0.00 0.02 0.02 37 1014.4
20260508010205 63 182 0.0 0.0 0.00 0.02 0.02 37 1014.3
20260508005705 63 182 0.9 1.7 0.00 0.02 0.02 37 1014.3
20260508005205 63 182 0.0 1.7 0.00 0.02 0.02 40 1014.3
20260508004705 63 182 0.0 0.0 0.00 0.03 0.02 42 1014.3
20260508004206 64 182 0.0 0.0 0.00 0.03 0.02 43 1014.2
20260508003205 64 182 0.0 0.0 0.00 0.04 0.02 38 1014.0
20260508002205 64 182 0.0 0.9 0.00 0.04 0.02 37 1014.0
20260508001705 65 182 0.0 0.0 0.00 0.04 0.02 35 1014.2
20260508001205 65 182 0.0 0.0 0.00 0.04 0.02 35 1014.1
20260508000705 65 182 0.0 0.0 0.00 0.05 0.02 34 1014.2
20260508000205 65 182 0.0 0.0 0.00 0.05 0.02 34 1014.3
20260507235705 65 182 0.0 0.0 0.00 0.06 0.02 33 1014.2
20260507235205 65 182 0.0 0.9 0.00 0.06 0.02 33 1014.0
20260507234705 65 182 0.0 1.7 0.00 0.06 0.02 33 1014.1
20260507234205 66 182 0.0 0.9 0.00 0.07 0.02 33 1014.1
20260507233705 66 182 0.0 2.6 0.00 0.08 0.02 32 1014.1
20260507233204 66 182 0.9 2.6 0.00 0.08 0.02 31 1014.1
20260507232705 66 182 0.0 1.7 0.00 0.09 0.02 31 1014.1
20260507232205 66 179 0.9 2.6 0.00 0.10 0.02 30 1014.2
20260507231205 66 251 0.9 1.7 0.00 0.11 0.02 29 1014.3
20260507230205 67 251 0.9 1.7 0.00 0.13 0.02 29 1014.3
20260507225705 67 251 0.9 1.7 0.00 0.14 0.02 28 1014.3
20260507225205 67 251 0.0 0.0 0.00 0.15 0.02 29 1014.3
20260507224706 67 252 0.0 1.7 0.00 0.16 0.02 30 1014.4
20260507223705 67 251 0.0 1.7 0.00 0.18 0.02 30 1014.3
20260507223205 66 251 0.0 0.9 0.00 0.19 0.02 30 1014.4
20260507222705 66 251 0.9 2.6 0.00 0.20 0.02 31 1014.3
20260507222205 66 0 0.0 2.6 0.00 0.21 0.02 30 1014.4
20260507221705 66 317 0.0 2.6 0.00 0.22 0.02 30 1014.5
20260507221205 65 302 0.9 2.6 0.00 0.22 0.02 30 1014.4
20260507220205 65 233 1.7 6.1 0.00 0.24 0.02 30 1014.5
20260507215704 65 5 0.0 1.7 0.00 0.26 0.02 30 1014.7
20260507215205 65 5 1.7 2.6 0.00 0.27 0.02 30 1014.7
20260507214705 65 351 0.0 2.6 0.00 0.28 0.02 32 1014.9
20260507214205 65 355 0.9 12.2 0.00 0.30 0.02 30 1015.0
20260507213705 65 4 2.6 6.1 0.00 0.32 0.02 28 1014.9
20260507213205 65 255 0.0 2.6 0.00 0.33 0.02 32 1015.1
20260507212204 65 294 0.9 5.2 0.00 0.37 0.02 30 1015.3
20260507211706 66 305 1.7 5.2 0.00 0.39 0.02 29 1015.3
20260507211205 66 285 0.9 4.3 0.00 0.40 0.02 30 1015.5
20260507210704 66 328 2.6 10.4 0.00 0.41 0.02 30 1015.5
20260507210205 66 259 2.6 8.7 0.00 0.42 0.02 28 1015.6
20260507205705 67 241 0.9 7.8 0.00 0.42 0.02 29 1015.6
20260507205205 68 294 0.9 7.8 0.00 0.43 0.02 30 1015.7
20260507204704 69 268 0.9 5.2 0.00 0.43 0.02 28 1015.7
20260507204205 69 0 0.9 2.6 0.00 0.44 0.02 29 1015.7
20260507203704 70 253 0.9 2.6 0.00 0.44 0.02 31 1015.8
20260507202705 70 241 1.7 6.1 0.00 0.44 0.02 30 1015.9
20260507202204 69 280 2.6 7.0 0.00 0.45 0.02 29 1015.9
20260507201704 69 310 1.7 7.8 0.00 0.45 0.02 32 1015.9
20260507201205 69 297 0.9 4.3 0.00 0.46 0.02 29 1016.0
20260507200705 69 3 1.7 5.2 0.00 0.46 0.02 28 1016.0
20260507200204 69 4 1.7 5.2 0.00 0.46 0.02 30 1016.1
20260507195704 68 254 0.9 2.6 0.00 0.47 0.02 32 1016.1
20260507195205 67 180 0.9 2.6 0.00 0.47 0.02 30 1016.1
20260507194705 67 209 1.7 4.3 0.00 0.48 0.02 36 1016.2
20260507194205 66 197 3.5 8.7 0.00 0.48 0.02 35 1016.2
20260507193704 65 353 2.6 7.8 0.00 0.48 0.02 32 1016.2
20260507193205 65 45 2.6 7.0 0.00 0.49 0.02 30 1016.3
20260507192705 65 286 0.9 6.1 0.00 0.49 0.02 37 1016.4
20260507192205 64 109 0.9 1.7 0.00 0.50 0.02 35 1016.4
20260507191705 64 332 0.9 2.6 0.00 0.50 0.02 35 1016.4
20260507191205 64 321 0.0 2.6 0.00 0.50 0.02 34 1016.5
20260507190705 64 174 0.0 1.7 0.00 0.50 0.02 34 1016.5
20260507190204 64 174 0.9 1.7 0.00 0.50 0.02 35 1016.6
20260507184704 64 212 1.7 4.3 0.00 0.51 0.02 36 1016.7
20260507184205 63 175 0.0 2.6 0.00 0.52 0.02 35 1016.7
20260507183705 63 254 0.0 0.9 0.00 0.52 0.02 34 1016.8
20260507182704 63 254 0.9 2.6 0.00 0.52 0.02 36 1016.8
20260507182206 63 255 0.0 0.9 0.00 0.53 0.02 36 1016.9
20260507181705 63 255 0.9 2.6 0.00 0.53 0.02 36 1016.9
20260507181205 63 15 0.0 1.7 0.00 0.53 0.02 35 1017.0
20260507180205 62 15 0.0 1.7 0.00 0.53 0.02 37 1017.0
20260507175704 62 15 0.0 1.7 0.00 0.53 0.02 35 1017.0
20260507175204 62 15 0.0 2.6 0.00 0.53 0.02 37 1017.0
20260507174705 62 15 0.0 0.0 0.00 0.54 0.02 38 1017.0
20260507174205 62 15 0.0 1.7 0.00 0.54 0.02 37 1017.0
20260507173705 62 17 0.9 1.7 0.00 0.54 0.02 36 1017.1
20260507172704 62 319 0.9 1.7 0.00 0.54 0.02 35 1017.1
20260507172205 62 281 0.9 5.2 0.00 0.54 0.02 36 1017.2
20260507171705 62 269 0.9 2.6 0.00 0.54 0.02 36 1017.1
20260507171205 62 269 0.0 1.7 0.00 0.54 0.02 34 1017.2
20260507170705 62 269 0.0 0.9 0.00 0.54 0.02 36 1017.2
20260507170205 62 269 0.0 2.6 0.00 0.54 0.02 36 1017.2
20260507165705 62 269 0.9 2.6 0.00 0.54 0.02 35 1017.2
20260507165205 62 270 1.7 4.3 0.00 0.54 0.02 35 1017.2
20260507164704 63 282 1.7 7.0 0.00 0.54 0.02 34 1017.3
20260507164204 63 243 0.9 2.6 0.00 0.54 0.02 34 1017.3
20260507163205 63 250 0.9 2.6 0.00 0.54 0.02 35 1017.3
20260507162704 63 267 0.0 2.6 0.00 0.55 0.02 37 1017.4
20260507162204 62 5 0.9 1.7 0.00 0.55 0.02 37 1017.4
20260507161705 62 5 1.7 4.3 0.00 0.55 0.02 36 1017.5
20260507161205 63 73 0.9 2.6 0.00 0.55 0.02 36 1017.5
20260507160705 63 151 0.9 5.2 0.00 0.55 0.02 36 1017.4
20260507160204 63 208 1.7 5.2 0.00 0.55 0.02 37 1017.4
20260507155705 62 260 1.7 10.4 0.00 0.55 0.02 38 1017.4
20260507155205 62 3 0.9 5.2 0.00 0.55 0.02 39 1017.5
20260507154704 62 282 2.6 7.0 0.00 0.55 0.02 39 1017.5
20260507154205 61 59 1.7 7.0 0.00 0.55 0.02 38 1017.5
20260507153704 61 312 0.9 4.3 0.00 0.55 0.02 40 1017.5
20260507153204 60 308 0.0 2.6 0.00 0.55 0.02 39 1017.5
20260507151705 59 276 1.7 7.8 0.00 0.56 0.02 40 1017.5
20260507151204 58 252 0.9 2.6 0.00 0.56 0.02 41 1017.5
20260507150704 58 258 2.6 7.8 0.00 0.56 0.02 42 1017.6
20260507150205 57 251 3.5 10.4 0.00 0.56 0.02 40 1017.5
20260507145704 57 247 3.5 7.8 0.00 0.56 0.02 42 1017.6
20260507145204 56 275 0.9 2.6 0.00 0.56 0.02 43 1017.5
20260507144704 56 276 2.6 7.8 0.00 0.56 0.02 43 1017.5
20260507143704 55 248 1.7 7.0 0.00 0.56 0.02 45 1017.6
20260507143205 55 289 1.7 5.2 0.00 0.56 0.02 44 1017.6
20260507142204 54 217 0.9 7.8 0.01 0.56 0.02 45 1017.5
20260507141704 54 215 1.7 6.1 0.01 0.56 0.02 46 1017.4
20260507141205 53 274 0.9 6.1 0.01 0.56 0.02 45 1017.4
20260507140705 53 250 1.7 7.0 0.01 0.56 0.02 45 1017.4
20260507140205 52 165 0.0 7.8 0.01 0.56 0.02 46 1017.4
20260507135704 52 266 0.9 13.9 0.01 0.56 0.02 46 1017.4
20260507135204 52 248 1.7 7.0 0.01 0.56 0.02 48 1017.5
20260507134705 51 221 1.7 10.4 0.01 0.56 0.02 47 1017.6
20260507134204 51 230 1.7 8.7 0.01 0.56 0.02 47 1017.5
20260507133704 51 251 3.5 10.4 0.01 0.56 0.02 48 1017.5
20260507133204 50 208 2.6 10.4 0.01 0.56 0.02 48 1017.6
20260507132705 50 15 2.6 10.4 0.00 0.55 0.01 48 1017.5
20260507131704 49 207 1.7 10.4 0.00 0.55 0.01 49 1017.3
20260507131204 49 264 4.3 11.3 0.00 0.55 0.01 49 1017.3
20260507130704 49 282 1.7 10.4 0.00 0.55 0.01 50 1017.4
20260507130205 48 296 3.5 11.3 0.00 0.55 0.01 51 1017.4
20260507125704 48 261 2.6 11.3 0.00 0.55 0.01 51 1017.3
20260507125204 48 269 2.6 8.7 0.00 0.55 0.01 52 1017.3
20260507124204 47 297 2.6 10.4 0.00 0.55 0.01 52 1017.2
20260507123705 47 295 1.7 7.0 0.00 0.55 0.01 53 1017.2
20260507123204 47 227 2.6 10.4 0.01 0.55 0.01 54 1017.2
20260507122204 45 232 1.7 7.8 0.01 0.55 0.01 55 1017.1
20260507121705 44 278 3.5 10.4 0.01 0.55 0.01 57 1017.1
20260507121204 44 277 1.7 7.8 0.01 0.55 0.01 58 1017.2
20260507120704 43 286 1.7 6.1 0.01 0.55 0.01 59 1017.2
20260507120204 43 264 1.7 6.1 0.01 0.55 0.01 61 1017.2
20260507115704 42 243 0.9 6.1 0.01 0.55 0.01 61 1017.1
20260507115204 42 250 0.9 7.0 0.01 0.55 0.01 62 1017.2
20260507114705 42 269 0.9 7.0 0.01 0.55 0.01 61 1017.1
20260507114204 42 182 0.0 0.0 0.01 0.55 0.01 60 1017.2
20260507113704 43 182 0.0 0.0 0.01 0.55 0.01 59 1017.3
20260507112704 43 182 0.0 0.9 0.00 0.54 0.00 59 1017.3
20260507112205 43 182 0.9 1.7 0.00 0.54 0.00 57 1017.3
20260507111704 43 182 0.9 1.7 0.00 0.54 0.00 57 1017.3
20260507111205 43 182 0.0 2.6 0.00 0.54 0.00 57 1017.2
20260507110705 43 173 1.7 5.2 0.00 0.54 0.00 57 1017.0
20260507105705 43 328 0.9 2.6 0.00 0.54 0.00 57 1017.3
20260507105204 43 215 1.7 6.1 0.00 0.54 0.00 57 1017.2
20260507104704 42 175 0.9 2.6 0.00 0.54 0.00 58 1017.2
20260507104204 42 220 0.9 5.2 0.00 0.54 0.00 59 1017.3
20260507103704 42 244 0.9 2.6 0.00 0.54 0.00 59 1017.2
20260507103204 42 200 1.7 5.2 0.00 0.54 0.00 59 1017.3
20260507102704 42 208 0.9 2.6 0.00 0.54 0.00 59 1017.3
20260507102205 41 222 0.9 2.6 0.00 0.54 0.00 60 1017.3
20260507101704 41 232 0.0 5.2 0.00 0.54 0.00 60 1017.4
20260507100704 41 139 0.0 1.7 0.00 0.54 0.00 62 1017.4
20260507100205 41 139 0.0 1.7 0.00 0.54 0.00 61 1017.4
20260507095704 41 139 0.0 2.6 0.00 0.54 0.00 61 1017.4
20260507095204 41 251 0.9 2.6 0.00 0.54 0.00 61 1017.4
20260507094704 41 254 0.9 5.2 0.00 0.54 0.00 60 1017.4
20260507093704 41 193 0.9 7.8 0.00 0.54 0.00 59 1017.4
20260507093205 41 218 1.7 7.0 0.00 0.54 0.00 60 1017.5
20260507092204 40 245 0.0 10.4 0.00 0.54 0.00 61 1017.6
20260507091704 39 202 0.9 5.2 0.00 0.54 0.00 64 1017.6
20260507091204 39 180 1.7 2.6 0.00 0.54 0.00 65 1017.7
20260507090704 39 221 0.0 2.6 0.00 0.54 0.00 65 1017.8
20260507090205 39 229 0.9 4.3 0.00 0.54 0.00 64 1017.7
20260507085204 39 184 0.9 2.6 0.00 0.54 0.00 66 1017.6
20260507084704 39 271 0.0 1.7 0.00 0.54 0.00 65 1017.7
20260507084204 39 271 0.0 0.0 0.00 0.54 0.00 64 1017.7
20260507083204 39 221 0.0 1.7 0.00 0.54 0.00 65 1017.4